[[{"header":{"parameterUnit":"m.s-1","parameterCategory":1,"la1":30.2992,"la2":30.254,"lo1":-89.0895,"lo2":-89.0443,"dy":0.0025,"dx":0.0025,"nx":19,"ny":19,"refTime":"2026-03-27T03:00:00:Z","depth":0,"parameterNumber":2,"parameterNumberName":"U-component_of_WINDS"},"data":[0,0,0,1.0638,1.0639,1.0662,1.0662,1.0688,1.0688,0,0,0,0,0,0,0,0,0,0,0,1.0631,1.0631,1.0638,1.0639,1.0661,1.0662,1.0688,1.0688,0,0,0,0,0,0,0,0,0,0,0,1.0631,1.0631,1.0632,1.0639,1.0661,1.0662,1.0688,1.0672,0,0,0,0,0,0,0,0,0,0,1.065,1.0643,1.0631,1.0632,1.0639,1.0661,1.0662,1.0671,1.0673,1.0677,0,1.0682,0,1.0686,1.069,1.069,0,0,0,1.0639,1.0642,1.0648,1.0632,1.0639,1.0661,1.0651,1.0672,1.0674,1.0679,1.0682,1.0683,1.0686,1.069,1.069,1.0718,1.0719,0,0,1.0638,1.0635,1.0647,1.065,1.0647,1.0651,1.0652,1.0673,1.0676,1.0682,1.0684,1.0687,1.069,1.0691,1.0718,1.0718,0,0,0,1.0634,1.0634,1.064,1.0648,1.0653,1.0651,1.0653,1.0675,1.0677,1.0684,1.0687,1.0691,1.0691,1.0718,1.0718,1.0722,0,0,0,1.0633,1.0632,1.064,1.0638,1.0652,1.0664,1.0654,1.0675,1.0678,1.0687,1.0691,1.0691,1.0718,1.0718,1.0722,1.0724,0,0,0,1.063,1.0632,1.0635,1.0638,1.0648,1.0664,1.0667,1.0676,1.0679,1.069,1.0691,1.0718,1.0718,1.0721,1.0724,1.0731,0,0,0,1.0625,1.0638,1.0635,1.0649,1.0647,1.0667,1.0667,1.0682,1.0691,1.0691,1.0718,1.0718,1.0721,1.0723,1.073,1.0736,1.0738,0,0,1.0639,1.0639,1.0648,1.0646,1.0665,1.0663,1.0682,1.0694,1.0697,1.0711,1.0711,1.0722,1.0724,1.0731,1.0752,1.0754,0,0,0,1.0651,1.0658,1.0663,1.0673,1.0682,1.069,1.0698,1.0702,1.0715,1.0704,1.0727,1.0728,1.0732,1.0735,1.0736,1.074,1.072,1.072,1.072,1.0667,1.0671,1.0686,1.0692,1.0701,1.071,1.0717,1.0724,1.0725,1.073,1.0734,1.0747,1.075,1.0751,1.0755,1.0738,1.0738,1.0738,1.0738,1.0688,1.0697,1.0698,1.0713,1.0716,1.0728,1.0737,1.0737,1.0748,1.0744,1.0748,1.0743,1.0753,1.0756,1.0738,1.0738,1.0738,1.0738,1.0738,1.0698,1.0703,1.0708,1.0722,1.0732,1.0738,1.0749,1.0751,1.0754,1.0758,1.0762,1.0762,1.0762,1.076,1.076,1.076,1.076,1.076,1.076,1.0707,1.0713,1.0722,1.0733,1.0739,1.0747,1.0755,1.0761,1.0768,1.0769,1.0769,1.0769,1.0753,1.0749,1.0761,1.076,1.076,1.076,1.076,1.0726,1.0722,1.0736,1.0743,1.0755,1.0764,1.0768,1.0779,1.0785,1.079,1.0789,1.0777,1.0776,1.0775,1.0772,1.0788,1.0788,1.0788,1.0788,1.0735,1.0735,1.075,1.076,1.077,1.0774,1.0789,1.0795,1.0801,1.0804,1.0802,1.0798,1.0797,1.0797,1.0796,1.0792,1.0814,1.0814,1.0814,1.0747,1.0748,1.0761,1.0767,1.0777,1.0785,1.0799,1.0809,1.0815,1.0815,1.0807,1.0806,1.0799,1.0796,1.0796,1.0794,1.0788,0,0]},{"header":{"parameterUnit":"m.s-1","parameterCategory":1,"la1":30.2992,"la2":30.254,"lo1":-89.0895,"lo2":-89.0443,"dy":0.0025,"dx":0.0025,"nx":19,"ny":19,"refTime":"2026-03-27T03:00:00:Z","depth":0,"parameterNumber":3,"parameterNumberName":"V-component_of_WINDS"},"data":[0,0,0,3.1118,3.112,3.1196,3.1197,3.129,3.1291,0,0,0,0,0,0,0,0,0,0,0,3.1094,3.1094,3.1118,3.112,3.1196,3.1197,3.129,3.1291,0,0,0,0,0,0,0,0,0,0,0,3.1093,3.1094,3.1095,3.112,3.1196,3.1197,3.129,3.1233,0,0,0,0,0,0,0,0,0,0,3.116,3.1136,3.1094,3.1095,3.112,3.1196,3.1197,3.1231,3.1237,3.1254,0,3.1269,0,3.1282,3.1297,3.1297,0,0,0,3.1121,3.113,3.1153,3.1095,3.1121,3.1196,3.1162,3.1234,3.1241,3.1262,3.1271,3.1274,3.1283,3.1298,3.1298,3.1396,3.1396,0,0,3.1116,3.1106,3.1148,3.1157,3.1146,3.116,3.1164,3.1238,3.1247,3.1271,3.1277,3.1285,3.1298,3.1299,3.1396,3.1396,0,0,0,3.1104,3.1103,3.1124,3.1153,3.1168,3.1162,3.1167,3.1243,3.1251,3.1278,3.1286,3.1299,3.13,3.1395,3.1396,3.1407,0,0,0,3.1101,3.1096,3.1122,3.1116,3.1166,3.1207,3.1171,3.1246,3.1255,3.1285,3.1299,3.1301,3.1395,3.1396,3.1406,3.1414,0,0,0,3.1089,3.1094,3.1105,3.1116,3.1148,3.1206,3.1218,3.1248,3.126,3.1297,3.1301,3.1395,3.1395,3.1405,3.1412,3.1438,0,0,0,3.1073,3.1113,3.1105,3.1153,3.1148,3.1212,3.1217,3.1266,3.1299,3.1299,3.1395,3.1396,3.1404,3.1411,3.1436,3.1458,3.1466,0,0,3.1117,3.1118,3.1147,3.1142,3.1206,3.1201,3.1267,3.1306,3.1319,3.1369,3.1372,3.1406,3.1412,3.1438,3.1512,3.1518,0,0,0,3.1157,3.1178,3.1197,3.1229,3.1261,3.129,3.1321,3.1336,3.138,3.1343,3.1422,3.1426,3.1441,3.1452,3.1457,3.1471,3.14,3.14,3.14,3.1205,3.122,3.1269,3.1293,3.1324,3.1357,3.1383,3.1409,3.1413,3.1432,3.1447,3.149,3.1503,3.1507,3.1521,3.1459,3.1459,3.1459,3.1459,3.1271,3.1303,3.131,3.1361,3.1376,3.1418,3.145,3.1453,3.1494,3.148,3.1494,3.1478,3.1513,3.1526,3.146,3.146,3.146,3.146,3.146,3.1305,3.1323,3.1341,3.139,3.1426,3.1449,3.1488,3.15,3.1512,3.1526,3.1544,3.1544,3.1546,3.1534,3.1534,3.1534,3.1534,3.1534,3.1534,3.1332,3.1353,3.1385,3.1424,3.1447,3.1478,3.1511,3.1534,3.1562,3.1568,3.1568,3.1571,3.1513,3.1499,3.1537,3.1536,3.1536,3.1536,3.1535,3.1395,3.1383,3.1433,3.1456,3.1503,3.1538,3.1554,3.1599,3.1619,3.1638,3.1639,3.1594,3.1595,3.1591,3.1579,3.1635,3.1635,3.1635,3.1635,3.1423,3.1425,3.148,3.1517,3.1553,3.1573,3.1629,3.1655,3.1681,3.1694,3.1688,3.1673,3.1668,3.1672,3.1666,3.1655,3.173,3.173,3.173,3.1463,3.147,3.1515,3.1541,3.1579,3.1611,3.1664,3.1705,3.1731,3.1734,3.1705,3.1701,3.1678,3.1669,3.1671,3.1661,3.1642,0,0]}]]